This demonstration page uses our WeatherBlox Daily Observations layout. Learn more.

Left ArrowRight Arrow

39.08367, -84.50855

Hourly Observations for March 21, 2019

Temp ( °F °C ) Dew Point ( °F °C ) Humidity (%) Winds ( mph kmh ) Pressure ( in mb ) Visibility ( mi km ) Precip ( " mm )
12:53 am 00:53 Cloudy with Light Rain 48 8.9 40 4.4 74 74 WSW 14 22 30.00 1016 10 16 N/A
1:45 am 01:45 Cloudy 48 8.9 40 4.4 74 74 WSW 13 20 30.01 1016 10 16 N/A
1:53 am 01:53 Cloudy with Light Rain 48 8.9 40 4.4 74 74 WSW 13 20 29.99 1016 10 16 N/A
2:38 am 02:38 Cloudy 46 7.8 41 5 83 83 SW 8 13 30.00 1016 10 16 N/A
2:53 am 02:53 Cloudy with Light Rain 46 7.8 41 5 83 83 SW 8 13 29.99 1016 10 16 N/A
3:53 am 03:53 Cloudy with Light Rain 45 7.2 41 5 86 86 S 6 9 29.96 1015 10 16 N/A
4:48 am 04:48 Cloudy with Light Rain 45 7 43 6 93 93 SSW 7 11 29.95 1014 10 16 N/A
4:53 am 04:53 Cloudy with Light Rain 45 7.2 42 5.6 90 90 SSW 6 9 29.93 1014 10 16 N/A
5:53 am 05:53 Cloudy with Light Rain 45 7.2 42 5.6 90 90 S 6 9 29.93 1014 10 16 0.01 0.25
6:42 am 06:42 Cloudy with Light Rain 45 7.2 42 5.6 90 90 SSW 6 9 29.94 1014 9 14 0.01 0.25
6:53 am 06:53 Cloudy with Light Rain 45 7.2 42 5.6 90 90 SSW 7 11 29.93 1013 8 13 0.01 0.25
7:53 am 07:53 Cloudy with Light Rain 45 7.2 42 5.6 90 90 SSW 10 17 29.92 1013 8 13 0.01 0.25
8:53 am 08:53 Cloudy with Mist and Fog 46 7.8 43 6.1 89 89 SSW 6 9 29.92 1013 6 10 N/A
9:53 am 09:53 Cloudy 47 8.3 42 5.6 83 83 WSW 12 19 29.91 1013 7 11 N/A
10:53 am 10:53 Cloudy 47 8.3 42 5.6 83 83 SW 8 13 29.92 1013 8 13 N/A
11:53 am 11:53 Cloudy with Nearby Thunderstorms 47 8.3 43 6.1 86 86 SW 7 11 29.91 1013 5 8 0.01 0.25
12:13 pm 12:13 Cloudy with Haze 48 8.9 43 6.1 83 83 VRB 7 11 29.91 1013 6 10 N/A
12:53 pm 12:53 Cloudy with Rain 44 6.7 40 4.4 85 85 VRB 6 9 29.92 1013 3 5 0.13 3.30
1:53 pm 13:53 Mostly Cloudy 46 7.8 40 4.4 79 79 VRB 5 7 29.91 1013 10 16 0.02 0.51
2:41 pm 14:41 Mostly Cloudy 48 8.9 42 5.6 80 80 VRB 3 6 29.91 1013 10 16 N/A
2:48 pm 14:48 Cloudy 50 10 41 5 71 71 N 9 15 29.91 1013 10 16 N/A
2:53 pm 14:53 Cloudy 51 10.6 42 5.6 71 71 N 10 17 29.89 1012 10 16 N/A
3:15 pm 15:15 Mostly Cloudy 53 11.7 42 5.6 66 66 NE 8 13 29.88 1012 10 16 N/A
3:37 pm 15:37 Mostly Cloudy 49 9.4 39 3.9 69 69 W 15 24 29.90 1012 10 16 N/A
3:53 pm 15:53 Cloudy with Light Rain 46 7.8 40 4.4 79 79 WSW 14 22 29.89 1012 9 14 N/A
4:53 pm 16:53 Cloudy with Light Rain 48 8.9 41 5 77 77 WSW 16 26 29.91 1013 10 16 N/A
5:17 pm 17:17 Cloudy with Heavy Rain 47 8.3 41 5 80 80 W 7 11 29.93 1014 3 5 0.03 0.76
5:45 pm 17:45 Cloudy with Light Rain 46 7.8 39 3.9 77 77 WSW 7 11 29.93 1014 10 16 0.06 1.52
5:53 pm 17:53 Cloudy with Light Rain 46 7.8 40 4.4 79 79 VRB 7 11 29.92 1013 10 16 0.06 1.52
6:53 pm 18:53 Cloudy 47 8.3 39 3.9 74 74 SW 6 9 29.93 1014 10 16 N/A
7:20 pm 19:20 Cloudy with Light Rain 47 8.3 40 4.4 77 77 VRB 7 11 29.95 1014 10 16 N/A
7:33 pm 19:33 Cloudy with Light Rain 47 8.3 39 3.9 74 74 WSW 10 17 29.95 1014 10 16 N/A
7:53 pm 19:53 Cloudy 47 8.3 39 3.9 74 74 W 8 13 29.95 1014 10 16 N/A
9:42 pm 21:42 Mostly Cloudy 45 7.2 38 3.3 77 77 WSW 8 13 29.99 1016 10 16 N/A
9:53 pm 21:53 Cloudy 45 7.2 38 3.3 77 77 VRB 7 11 29.98 1015 10 16 N/A
10:26 pm 22:26 Partly Cloudy 43 6.1 37 2.8 80 80 WSW 6 9 30.00 1016 10 16 N/A
10:53 pm 22:53 Mostly Cloudy 43 6.1 37 2.8 80 80 WSW 10 17 30.00 1016 9 14 N/A
11:53 pm 23:53 Cloudy 44 6.7 37 2.8 76 76 WSW 14 22 30.01 1016 9 14 N/A

Powered by AerisWeather